Retour au catalogue

STARLINK-35828

ActifCommunicationsVLEO
NORAD 66351·PAYLOAD·🇺🇸 United States

Lancé Nov 6, 2025 depuis Vandenberg Space Force Base

Loading…

Prochains Passages (prochaines 24 heures)

TLE

FraisSource: CelesTrak SupGP

Époque: Sep 15, 2026, 02:48 UTC

1 66351C 25254D   26258.11715278 -.00029540  00000+0 -95012-3 0  2583
2 66351  53.1591  71.0062 0001228  89.7440 142.4467 15.31709757    12

Suivez STARLINK-35828 en temps réel avec AllMySat

Download on the App Store